TimeEST,TemperatureF,Dew PointF,Humidity,Sea Level PressureIn,VisibilityMPH,Wind Direction,Wind SpeedMPH,Gust SpeedMPH,PrecipitationIn,Events,Conditions,WindDirDegrees,DateUTC
12:49 AM,37.4,37.4,100,30.11,0.8,SSE,3.5,-,N/A,,Overcast,150,2013-01-13 05:49:00
12:52 AM,37.0,37.0,100,30.13,0.8,Calm,Calm,-,N/A,,Overcast,0,2013-01-13 05:52:00
12:59 AM,37.4,35.6,93,30.11,1.0,Calm,Calm,-,N/A,,Overcast,0,2013-01-13 05:59:00
1:43 AM,35.6,35.6,100,30.13,1.5,Calm,Calm,-,N/A,,Overcast,0,2013-01-13 06:43:00
1:52 AM,36.0,36.0,100,30.14,2.0,Calm,Calm,-,N/A,,Overcast,0,2013-01-13 06:52:00
2:03 AM,35.6,35.6,100,30.13,1.8,Calm,Calm,-,N/A,,Overcast,0,2013-01-13 07:03:00
2:36 AM,35.6,35.6,100,30.13,0.8,Calm,Calm,-,N/A,,Overcast,0,2013-01-13 07:36:00
2:52 AM,37.0,36.0,96,30.15,1.0,Calm,Calm,-,N/A,,Overcast,0,2013-01-13 07:52:00
2:57 AM,37.4,35.6,93,30.14,2.0,Calm,Calm,-,N/A,,Overcast,0,2013-01-13 07:57:00
3:11 AM,35.6,35.6,100,30.13,1.0,Calm,Calm,-,N/A,,Overcast,0,2013-01-13 08:11:00
3:19 AM,35.6,35.6,100,30.12,0.8,Calm,Calm,-,N/A,,Overcast,0,2013-01-13 08:19:00
3:31 AM,35.6,35.6,100,30.13,1.0,Calm,Calm,-,N/A,,Overcast,0,2013-01-13 08:31:00
3:39 AM,35.6,35.6,100,30.11,0.8,Calm,Calm,-,N/A,,Overcast,0,2013-01-13 08:39:00
3:47 AM,35.6,35.6,100,30.12,1.0,Calm,Calm,-,N/A,,Overcast,0,2013-01-13 08:47:00
3:52 AM,36.0,35.1,97,30.13,1.0,Calm,Calm,-,N/A,,Overcast,0,2013-01-13 08:52:00
4:01 AM,35.6,35.6,100,30.10,0.8,Calm,Calm,-,N/A,,Overcast,0,2013-01-13 09:01:00
4:17 AM,35.6,35.6,100,30.09,0.8,Calm,Calm,-,N/A,,Mist,0,2013-01-13 09:17:00
4:29 AM,35.6,35.6,100,30.11,0.5,West,3.5,-,N/A,Fog,Fog,280,2013-01-13 09:29:00
4:52 AM,37.9,37.0,97,30.11,0.5,Calm,Calm,-,N/A,Fog,Fog,0,2013-01-13 09:52:00
5:04 AM,35.6,35.6,100,30.10,0.5,Calm,Calm,-,N/A,Fog,Fog,0,2013-01-13 10:04:00
5:17 AM,37.4,35.6,93,30.08,0.5,NE,4.6,-,N/A,Fog,Fog,40,2013-01-13 10:17:00
5:22 AM,37.4,37.4,100,30.09,1.0,Calm,Calm,-,N/A,,Mist,0,2013-01-13 10:22:00
5:45 AM,37.4,35.6,93,30.12,1.8,Calm,Calm,-,N/A,,Overcast,0,2013-01-13 10:45:00
5:52 AM,37.9,37.0,97,30.12,3.0,Calm,Calm,-,N/A,,Overcast,0,2013-01-13 10:52:00
6:09 AM,37.4,35.6,93,30.10,1.8,Calm,Calm,-,N/A,,Overcast,0,2013-01-13 11:09:00
6:37 AM,37.4,35.6,93,30.11,1.0,Calm,Calm,-,N/A,,Overcast,0,2013-01-13 11:37:00
6:52 AM,37.0,36.0,96,30.13,1.2,Calm,Calm,-,N/A,,Overcast,0,2013-01-13 11:52:00
6:57 AM,35.6,35.6,100,30.11,0.8,Calm,Calm,-,N/A,,Overcast,0,2013-01-13 11:57:00
7:15 AM,37.4,35.6,93,30.12,1.2,Calm,Calm,-,N/A,,Overcast,0,2013-01-13 12:15:00
7:23 AM,35.6,35.6,100,30.11,0.8,SSE,3.5,-,N/A,,Overcast,150,2013-01-13 12:23:00
7:52 AM,37.9,37.0,97,30.14,0.8,Calm,Calm,-,N/A,,Overcast,0,2013-01-13 12:52:00
7:55 AM,37.4,37.4,100,30.12,1.2,Calm,Calm,-,N/A,,Overcast,0,2013-01-13 12:55:00
8:00 AM,37.4,37.4,100,30.12,0.8,Calm,Calm,-,N/A,,Overcast,0,2013-01-13 13:00:00
8:11 AM,37.4,37.4,100,30.13,0.2,Calm,Calm,-,N/A,Fog,Fog,0,2013-01-13 13:11:00
8:52 AM,39.0,39.0,100,30.15,0.2,Calm,Calm,-,N/A,Fog,Fog,0,2013-01-13 13:52:00
9:16 AM,39.2,37.4,93,30.14,0.5,Calm,Calm,-,N/A,Fog,Fog,0,2013-01-13 14:16:00
9:52 AM,39.9,39.0,97,30.15,0.2,Calm,Calm,-,N/A,Fog,Fog,0,2013-01-13 14:52:00
10:52 AM,42.1,42.1,100,30.14,0.2,Calm,Calm,-,N/A,Fog,Fog,0,2013-01-13 15:52:00
12:22 PM,44.6,42.8,93,30.08,1.2,ENE,3.5,-,N/A,,Overcast,60,2013-01-13 17:22:00
12:26 PM,44.6,44.6,100,30.08,3.0,SE,6.9,-,N/A,,Overcast,140,2013-01-13 17:26:00
12:39 PM,44.6,42.8,93,30.07,4.0,SSE,6.9,-,N/A,,Overcast,160,2013-01-13 17:39:00
12:52 PM,44.1,43.0,96,30.08,4.0,SSE,6.9,-,N/A,,Overcast,160,2013-01-13 17:52:00
1:22 PM,44.6,44.6,100,30.07,1.8,SSE,6.9,-,N/A,,Overcast,150,2013-01-13 18:22:00
1:34 PM,44.6,44.6,100,30.06,2.5,SE,6.9,-,N/A,,Overcast,140,2013-01-13 18:34:00
1:42 PM,44.6,44.6,100,30.06,3.0,SE,6.9,-,N/A,,Overcast,140,2013-01-13 18:42:00
1:52 PM,46.0,45.0,96,30.07,4.0,SE,6.9,-,N/A,,Overcast,140,2013-01-13 18:52:00
2:45 PM,46.4,44.6,93,30.05,4.0,ESE,8.1,-,N/A,,Overcast,120,2013-01-13 19:45:00
2:52 PM,46.0,45.0,96,30.06,5.0,ESE,5.8,-,N/A,,Overcast,120,2013-01-13 19:52:00
4:44 PM,46.4,44.6,93,30.02,7.0,SE,6.9,-,N/A,,Overcast,130,2013-01-13 21:44:00
4:52 PM,46.0,45.0,96,30.03,7.0,SE,10.4,-,N/A,,Overcast,140,2013-01-13 21:52:00
5:06 PM,44.6,44.6,100,30.01,7.0,SE,11.5,-,N/A,,Mostly Cloudy,140,2013-01-13 22:06:00
5:52 PM,45.0,43.0,93,30.01,5.0,SE,9.2,-,N/A,,Mostly Cloudy,140,2013-01-13 22:52:00
6:52 PM,48.0,45.0,89,30.02,10.0,Calm,Calm,-,N/A,,Overcast,0,2013-01-13 23:52:00
7:52 PM,50.0,45.0,83,30.02,10.0,Variable,3.5,-,N/A,,Overcast,0,2013-01-14 00:52:00
8:33 PM,50.0,46.4,87,30.00,10.0,SSW,10.4,20.7,N/A,,Overcast,200,2013-01-14 01:33:00
8:52 PM,50.0,46.0,86,30.01,10.0,SW,8.1,17.3,N/A,,Overcast,220,2013-01-14 01:52:00
9:52 PM,46.9,45.0,93,30.00,10.0,Calm,Calm,-,N/A,,Overcast,0,2013-01-14 02:52:00
10:52 PM,45.0,44.1,97,30.00,5.0,Calm,Calm,-,N/A,,Overcast,0,2013-01-14 03:52:00
11:43 PM,42.8,42.8,100,29.99,1.8,Calm,Calm,-,N/A,,Overcast,0,2013-01-14 04:43:00
11:52 PM,44.1,43.0,96,30.00,3.0,Calm,Calm,-,N/A,,Overcast,0,2013-01-14 04:52:00